Regional Weather Roundup
Issued by NWS

Home | Current Version | Previous Version | Graphics & Text | Print | Product List | Glossary Off
Versions: 1 2 3 4 5 6 7 8 9 10 11 12 13 14 15 16 17 18 19 20 21 22 23 24 25 26 27 28 29 30 31 32 33 34 35 36 37 38 39 40 41 42 43 44 45 46 47 48 49 50

000
ASUS43 KLSX 241610
RWRMO

WEATHER SUMMARY FOR MISSOURI
NATIONAL WEATHER SERVICE SPRINGFIELD MO
1100 AM CDT FRI MAR 24 2017

NOTE: "FAIR" INDICATES FEW OR NO CLOUDS BELOW 12,000 FEET WITH NO
       SIGNIFICANT WEATHER AND/OR OBSTRUCTIONS TO VISIBILITY.
       CURRENT SKY AND/OR WEATHER CONDITIONS ARE NOT AVAILABLE FOR
       CHILLICOTHE AND FARMINGTON.

MOZ001>031-035>038-043-044-053-054-241700-
...NORTHERN AND WESTERN MISSOURI...

CITY           SKY/WX    TMP DP  RH WIND       PRES   REMARKS
KANSAS CTY INT TSTM      63  50  62 SW12      29.86R
KANSAS C DTWN  LGT RAIN  65  51  60 S15       29.85R
LEE`S SUMMIT   CLOUDY    68  44  42 SW21G30   29.85R
ST JOSEPH      TSTM      58  55  90 S6        29.87R FOG
CHILLICOTHE      N/A     69  44  40 S12       29.87R
KIRKSVILLE     CLOUDY    70  32  24 SW17G25   29.90R

$$
MOZ066>068-077>081-088>096-101>105-241700-
...SOUTHWEST MISSOURI...

CITY           SKY/WX    TMP DP  RH WIND       PRES   REMARKS
SPRINGFIELD    PTSUNNY   69  49  48 S25G35    29.94R
JOPLIN         CLOUDY    67  52  58 S24G33    29.90R
BRANSON        PTSUNNY   68  50  52 S21G32    30.00R

$$
MOZ032>034-039>042-045>050-055>058-069>072-241700-
...CENTRAL MISSOURI...

CITY           SKY/WX    TMP DP  RH WIND       PRES   REMARKS
COLUMBIA       PTSUNNY   73  47  39 S23G37    29.93R
JEFFERSON CITY CLOUDY    76  47  35 S20G31    29.92S
ROLLA          SUNNY     74  52  46 S28G41    29.95R
SEDALIA        CLOUDY    71  45  39 S26G36    29.90R
WHITEMAN AFB   PTSUNNY   69  44  39 SW25G32   29.87R
WARRENSBURG    PTSUNNY   70  43  37 S24G33    29.87R
OSAGE BEACH    PTSUNNY  N/A N/A N/A S14G28    29.95R

$$
MOZ051-052-059>065-241700-
...EAST CENTRAL MISSOURI...

CITY           SKY/WX    TMP DP  RH WIND       PRES   REMARKS
ST LOUIS INTL  PTSUNNY   75  55  49 S17       29.99F
SPIRIT OF STL  MOSUNNY   76  54  46 S13       29.98S
ST CHARLES     SUNNY     74  55  51 S16G28    29.98F

$$
MOZ072>076-082>087-097>100-106>115-241700-
...SOUTH CENTRAL AND SOUTHEAST MISSOURI...

CITY           SKY/WX    TMP DP  RH WIND       PRES   REMARKS
CAPE GIRARDEAU CLOUDY    67  58  72 S16G29    30.14R
FARMINGTON     CLOUDY    68  57  68 S22       30.06F
POPLAR BLUFF   CLOUDY    69  60  73 S15G28    30.12S
WEST PLAINS    MOSUNNY   68  55  63 S15G26    30.05S

$$



USA.gov is the U.S. government's official web portal to all federal, state and local government web resources and services.